Regional Weather Roundup
Issued by NWS

Home | Current Version | Previous Version | Text Only | Print | Product List | Glossary Off
Versions: 1 2 3 4 5 6 7 8 9 10 11 12 13 14 15 16 17 18 19 20 21 22 23 24 25 26 27 28 29 30 31 32 33 34 35 36 37 38 39 40 41 42 43 44 45 46 47 48 49 50

000
ASUS45 KSLC 271810
RWRUT

UTAH REGIONAL WEATHER ROUNDUP
NATIONAL WEATHER SERVICE SALT LAKE CITY UT
1200 PM MDT WED MAY 27 2015

UTZ001>011-023>025-271900-

NORTHERN UTAH

CITY           SKY/WX    TMP DP  RH WIND       PRES   REMARKS
BRIGHAM CITY   PTSUNNY   60  48  66 W6        30.10S
HILL AFB       PTSUNNY   60  49  68 SW8       30.09S
LOGAN          CLOUDY    55  49  80 N6        30.09F
OGDEN          PTSUNNY   61  51  70 SW6       30.09R
PROVO AIRPORT  NOT AVBL
SALT LAKE CITY CLOUDY    59  51  75 SE7       30.07F
VERNAL         PTSUNNY   58  47  66 VRB3      30.13F
WENDOVER       MOSUNNY   61  48  63 SE5       30.09R
HEBER CITY     PTSUNNY   63  43  48 W10       30.10F
WEST JORDAN    CLOUDY    57  52  82 E7        30.10S

$$

UTZ012>022-026-027-271900-

SOUTHERN/CENTRAL UTAH

CITY           SKY/WX    TMP DP  RH WIND       PRES   REMARKS
BLANDING       MOSUNNY   67  42  41 S8        30.23F
BRYCE CANYON   MOSUNNY   60  36  40 SE8       30.23S
CEDAR CITY     SUNNY     70  34  26 SW8       30.10F
DELTA          MOSUNNY   65  42  42 CALM      30.10S
HANKSVILLE     MOSUNNY   72  37  28 SW3       30.10F
MILFORD        MOSUNNY   69  46  43 S9        30.08F
MOAB/CYNLANDS  SUNNY     71  43  36 VRB5      30.08F
PRICE          PTSUNNY   63  41  44 SW5       30.15F
ST GEORGE      PTCLDY    77  39  25 CALM      30.01F

$$

REGIONAL REPORTS     COLORADO/ARIZONA

CITY           SKY/WX    TMP DP  RH WIND       PRES   REMARKS
CRAIG, CO      MOSUNNY   63  42  46 W8        30.16F
GRAND JUNCTION SUNNY     68  45  43 E5        30.11F
RIFLE          SUNNY     63  42  46 W7        30.14F
MONTROSE       MOSUNNY   67  43  41 NW7       30.16F
CORTEZ         MOSUNNY   71  39  31 SW10      30.15F
PAGE, AZ       MOSUNNY   73  43  33 NW6       30.08F
GRAND CANYON   PTSUNNY   67  24  19 SW8       30.20S
KINGMAN        MOSUNNY   80  29  15 W9        30.02S
FLAGSTAFF      MOSUNNY   65  25  22 S9G17     30.22R

$$

REGIONAL REPORTS    NEVADA/IDAHO/WYOMING

CITY           SKY/WX    TMP DP  RH WIND       PRES   REMARKS
LAS VEGAS, NV  MOSUNNY   84  35  17 SE5       29.91S
ELY            PTSUNNY   56  41  57 N24G31    30.14S THUNDER
ELKO           SUNNY     65  48  54 VRB5      30.07S
POCATELLO, ID  PTSUNNY   64  50  60 VRB3      30.05F
BURLEY         SUNNY     64  47  53 VRB6      30.02S
EVANSTON, WY   PTSUNNY   56  43  61 W18       30.15S
ROCK SPRINGS   SUNNY     58  38  47 W10       30.15F
KEMMERER       CLOUDY    54  41  62 CALM      30.16F

$$


USA.gov is the U.S. government's official web portal to all federal, state and local government web resources and services.